Weather in North Syracuse

United States     43°07′23″N   76°08′30″W
temp.,
°C
wind,
m/s
gust,
m/s
humid.,
%
clouds,
%
prec.,
mm/h
press.,
hPa
HPBL,
m
16 may, sun
sun1623:00+10ssw11785 0.1 102412
02:00+8ssw228332 0.1 102424
05:00+8sse218487 0.0 102411
08:00+12sse127689 0.0 1024140
11:00+18wnw125559 0.1 1024939
14:00+20nw214596 0.4 10232498
17:00+19ene125767 0.4 10221172
20:00+11sw51186100 3.5 1024252
17 may, mon
mon1723:00+10sse228076 0.0 102429
02:00+8s11875 0.0 102515
05:00+7s22885 0.0 102513
08:00+12s12783 0.0 1026194
11:00+18ssw34580 0.0 10251118
14:00+20ssw345226 0.2 10241949
17:00+18ssw246637 0.1 1023517
20:00+15wsw227616 0.1 102423
18 may, tue
tue1823:00+12ssw2186100 0.0 102515
02:00+11ssw228760 0.0 102516
05:00+12sw128699 0.1 102632
08:00+13w248073 0.1 1027200
11:00+18w35645 0.0 1027675
14:00+21wnw455887 0.0 10251360
17:00+20nw46615 0.1 10251071
20:00+16wsw22775 0.1 102521
19 may, wed
wed1923:00+13s11845 0.0 102612
02:00+12sw22885 0.0 102621
05:00+12sw22913 0.0 102622
08:00+16wsw12780 0.0 1028216
11:00+21wnw23630 0.0 1028688
14:00+24w22570 0.0 10271130
17:00+24wnw22572 0.0 10261308
20:00+19ene11756 0.0 102616
20 may, thu
thu2023:00+16sse22845 0.0 102618
02:00+15sse2286100 0.0 102717
05:00+15s2285100 0.0 102722
08:00+18s2380100 0.0 102896
11:00+23sw2461100 0.0 1028596
14:00+23wsw3464100 0.0 1027882
17:00+20wsw2484100 1.8 1028240
20:00+17s2392100 2.3 102753